CZ-3C DEB, 40869

Orbit data source: Space-Track

CZ-3C DEB, 40869 is space debris in HEO originally from a launch on Fri, 24 Feb 2012 UTC launched from the Xichang Space Center, China (XSC). Debris objects in space refer to the collection of defunct objects orbiting the Earth. Examples of debris include non-operational satellites, rocket bodies, and fragments generated from explosions, collisions, or faulty payload assembly.

Not visible in the next 10 days
Identifier
40869, 2012-008AK
Orbit
HEO
Last TLE update
1 month ago
Origin
Manufacturer
CALT
Mission
Spacecraft
Bus & Motor
Unknown
Mass
Unknown
Launch date (UTC)
2012-02-24 (13 years ago)
Launch vehicle
Unknown
Launch site
Xichang Space Center, China (XSC)
Object type
Payload
Rocket body
Debris
Shape & HBR
Unknown
Radar Cross Section
Medium (>0.1 m² and <1 m²)

Expand to show TLE details & history

TLE from 1 month ago
0 CZ-3C DEB
1 40869U 12008AK  25084.12490443  .00001585  00000-0  63035-1 0  9991
2 40869  18.4629 332.1867 7262175  75.3844 348.9966  2.08076827 89912
Epoch: 2025-03-25T02:59Z
Definitive object data (Epoch: 2025-03-25T02:59:51.742Z)
Latitude
-0.00007°
Longitude
104.41442°
Altitude
3,962.887 km
Speed
7.855 km/s
True Right ascension
22h 08m 50s
True Declination
0° 00' 00"
Sunlit
Object was in daylight at TLE epoch
Visualization TLE readout
Latitude
-4.52848°
Longitude
76.55292°
Altitude
11,503.619 km
Speed
5.403 km/s
Apparent Right ascension
21h 19m 20s
Apparent Declination
-16° 38' 05"
Sunlit
Object is in daylight
Visualization observer readout
Local Sidereal Time
14:24:31
Azimuth
94.541° ESE
Elevation
-20.963°
Doppler factor
1
Orbital elements
Apogee altitude
38,368.075 km
Perigee altitude
718.726 km
Semi-major axis
25,921.538 km
Eccentricity
0.7262175
Inclination
18.4629°
RAAN
332.1867°
Arg. of periapsis
75.3844°
True anomaly
283.81184°
Mean anomaly
348.9966°
Eccentric anomaly
325.32317°
Mean motion
0.52006 °/min
BSTAR
0.063035
Orbital period
692.23 mins
Loading maneuver chart data...
Loading SW <> Apogee altitude chart data...
Loading historical data...
Loading historical data...
Loading historical data...
Loading historical data...
Loading historical data...
Loading historical data...
Loading historical data...

CZ-3C DEB Visibility forecast

Observer location: undefined°, undefined°

CZ-3C DEB is not visible in the next 10 days
Span
Click to sort rows by Start time (UTC) header in descending order
Start Az.
Max El. time (UTC)
Max El. Az.
Max El.
End time (UTC)
End Az.
|